Home > Time Zones > World Clock > Weather > U.S.A. > Reno > Past weeks

Flag for U.S.A. Weather past 2 weeks in Reno, Nevada, U.S.A.

Now
73 °F

Partly cloudy.


Feels Like: 77 °F
Forecast: 70 / 89 °F
Wind: No wind

Location: Reno Tahoe International Airport

Current Time: Jul 29, 2014 at 4:14:29 AM

Latest Report: Jul 29, 2014 at 3:55 AM


Visibility: 10 mi

Pressure: 30.01 "Hg

Humidity: 44%

Dew point: 50 °F

Location of RenoLocation

Historic Weather in Reno — Graph

°F

Reno temperature yesterday

Maximum temperature yesterday: 96 °F (at 1:55 PM)
Minimum temperature yesterday: 67 °F (at 6:55 AM)
Average temperature yesterday: 80 °F

Past Weeks' High & Low Weather Summary

 TemperatureHumidityPressure
High104 °F (Jul 14, 2:55 PM)93% (Jul 20, 9:55 PM)30.08 "Hg (Jul 20, 9:55 PM)
Low57 °F (Jul 24, 5:55 AM)6% (Jul 26, 2:55 PM)29.78 "Hg (Jul 16, 6:55 PM)
Average79 °F33%29.92 "Hg
* Reported Jul 14 2:55 AM — Jul 29 2:55 AM, Reno, Weather by CustomWeather, © 2014

Note: Actual official high and low records may vary slightly from our data, if they occured in-between our weather recording intervals... More about our weather records

Advertising

Reno weather history for previous 24 hours

 ConditionsComfort  
Time TempWeatherWind HumidityBarometerVisibility
2:55 AM
Jul 29
73 °FPassing clouds.No wind46%30.01 "Hg10 mi
1:55 AM73 °FPassing clouds.No wind46%30.00 "Hg10 mi
12:55 AM73 °FPassing clouds.3 mph48%30.00 "Hg10 mi
11:55 PM
Jul 28
77 °FPassing clouds.3 mph36%30.01 "Hg10 mi
10:55 PM74 °FPartly cloudy.No wind43%30.02 "Hg10 mi
9:55 PM76 °FOvercast.5 mph39%30.04 "Hg10 mi
8:55 PM77 °FBroken clouds.No wind40%30.04 "Hg10 mi
7:55 PM75 °FCloudy.17 mph47%30.03 "Hg10 mi
6:55 PM76 °FLight rain. Cloudy.16 mph48%30.08 "Hg10 mi
5:55 PM86 °FThunderstorms. Broken clouds.14 mph22%30.00 "Hg10 mi
4:55 PM92 °FMostly cloudy.13 mph15%29.95 "Hg10 mi
3:55 PM94 °FMostly cloudy.6 mph13%29.93 "Hg10 mi
2:55 PM96 °FMostly cloudy.12 mph12%29.93 "Hg10 mi
1:55 PM96 °FBroken clouds.8 mph11%29.94 "Hg10 mi
12:55 PM94 °FBroken clouds.3 mph12%29.97 "Hg10 mi
11:55 AM90 °FMore clouds than sun.5 mph14%30.00 "Hg10 mi
10:55 AM86 °FMore clouds than sun.3 mph17%30.01 "Hg10 mi
9:55 AM82 °FMostly cloudy.3 mph21%30.03 "Hg10 mi
8:55 AM78 °FMostly cloudy.3 mph25%30.03 "Hg10 mi
7:55 AM72 °FBroken clouds.No wind31%30.04 "Hg10 mi
6:55 AM67 °FBroken clouds.5 mph42%30.03 "Hg10 mi
5:55 AM69 °FPassing clouds.3 mph33%30.01 "Hg10 mi
4:55 AM68 °FPassing clouds.No wind39%30.00 "Hg10 mi
Weather by CustomWeather, © 2014

See weather overviewHow to use our weather pages